Temp
73 75 76 75 63 57 51 60 69 66 70 78 81 81 77 80 76 63 75 79 78 77 78 80 80 80 80 80 79 79 79 79 79 79 79 79 79 79 79 79 80 80 81 81 81 80 80 80 80
77 80 75 67 58 50 54 65 65 71 79 81 85 84 80 74 82 73 72 78 78 77 77 78 80 80 80 79 79 79 79 79 79 79 79 79 79 79 79 79 80 80 81 81 80 80 80 80 80
77 80 69 62 54 52 62 68 71 75 80 82 79 86 82 77 78 77 78 78 77 75 75 78 79 79 80 79 79 79 79 79 79 79 79 79 79 79 79 79 79 80 81 81 80 80 80 80 80
79 72 69 60 57 64 75 75 76 79 83 85 83 76 82 87 84 80 79 79 75 73 75 78 79 79 79 79 79 79 79 79 79 79 79 79 79 78 78 79 79 80 80 80 80 80 80 79 79
75 68 58 55 59 69 81 83 79 77 81 80 81 74 77 82 82 80 79 79 74 73 74 77 79 79 79 79 79 79 79 78 78 79 79 79 79 78 78 78 79 80 80 80 80 79 79 78 78
70 66 56 52 61 71 80 84 81 79 80 79 79 76 73 80 80 80 81 78 77 74 74 76 79 78 79 79 79 78 78 78 78 78 78 78 78 78 78 78 79 79 79 79 79 79 78 78 78
66 60 54 56 64 69 78 84 82 80 78 80 82 72 72 79 82 83 82 80 78 76 75 75 75 78 79 78 78 78 78 78 78 78 78 78 78 78 78 78 78 78 78 78 78 78 78 77 77
70 63 57 58 61 65 83 85 85 82 77 87 84 70 68 79 84 85 84 79 76 76 75 73 74 75 74 75 78 78 78 78 78 78 78 78 78 78 78 77 78 78 78 78 78 78 77 77 77
71 59 55 58 63 70 82 78 86 87 81 83 82 80 82 85 84 84 77 74 75 76 72 73 73 73 73 74 77 78 79 78 78 78 78 76 72 72 75 77 77 78 78 78 78 77 77 77 77
66 56 61 70 71 71 77 80 84 82 80 76 79 84 85 86 81 78 75 73 73 73 73 72 72 72 73 80 76 74 75 75 74 74 73 72 71 70 76 76 78 78 78 78 78 77 77 76 70
61 62 72 76 76 74 76 80 81 80 74 75 75 79 83 82 81 78 78 77 76 75 76 75 74 74 75 78 75 73 73 72 73 73 72 71 73 70 72 71 74 73 77 72 74 71 70 69 69
61 72 73 79 82 72 76 78 80 81 81 84 82 82 83 81 79 81 80 79 78 76 77 77 77 76 76 79 75 74 73 73 72 73 73 71 69 69 70 72 71 70 69 69 68 68 69 69 69
65 71 74 77 76 73 77 77 77 78 83 84 84 84 82 80 82 87 84 82 80 77 78 78 79 78 78 77 75 74 75 75 75 74 73 73 69 69 70 69 69 68 68 68 67 67 67 66 67
68 70 73 74 74 71 72 77 76 83 83 83 84 82 84 83 83 83 81 81 80 80 80 81 80 79 79 78 76 77 77 76 75 75 74 74 73 70 70 69 68 68 68 66 66 66 65 64 63
71 67 71 74 73 74 74 74 74 82 82 80 82 82 84 84 85 85 84 83 82 82 82 81 81 80 79 79 78 78 77 78 75 75 75 75 73 71 70 69 68 67 66 66 65 64 64 63 64
66 61 56 71 73 80 76 66 77 82 78 79 81 83 83 82 85 85 86 85 86 83 83 83 86 80 79 78 77 79 74 77 76 73 74 75 73 72 69 69 67 66 65 65 64 62 61 60 59
57 54 59 66 75 74 70 66 77 81 77 79 81 82 83 83 84 81 85 85 85 84 82 82 84 81 77 75 75 74 74 73 73 72 71 73 74 73 69 67 65 65 64 63 63 61 60 58 58
55 56 58 61 71 71 66 68 73 78 76 78 76 82 83 83 84 85 81 85 85 83 81 82 81 80 77 73 71 72 72 72 72 71 71 72 72 72 67 65 65 64 63 61 61 60 59 57 56
64 61 61 66 73 70 62 66 72 75 73 75 73 76 77 82 88 85 81 81 81 80 77 76 75 72 75 69 69 68 70 70 69 70 71 71 72 70 66 64 64 63 62 61 61 59 57 56 54
66 61 60 66 74 68 66 66 70 72 73 74 77 77 75 78 81 79 77 76 78 77 78 77 78 74 77 77 72 71 70 69 69 68 69 70 70 69 67 64 63 62 61 59 58 57 54 52 52
62 59 61 62 68 67 65 61 66 77 73 76 78 78 77 75 78 77 77 78 77 78 78 78 76 75 76 73 71 70 69 68 66 65 65 67 69 69 66 65 63 61 59 57 55 54 53 50 50
57 71 69 67 60 52 63 49 60 67 68 76 79 78 74 73 75 80 80 74 78 78 76 74 72 71 73 72 74 71 69 66 66 66 65 66 68 67 67 66 62 59 57 56 55 55 52 50 48
65 72 66 65 58 53 57 51 57 65 66 69 73 71 75 74 75 78 81 74 73 74 73 73 74 73 73 73 74 69 68 66 66 64 64 64 64 66 67 63 60 58 57 55 55 53 52 50 49
73 68 62 56 53 46 53 53 54 61 66 74 75 74 75 75 74 75 75 78 75 76 75 74 73 73 73 72 72 71 68 66 65 64 63 62 62 62 63 62 59 58 56 55 54 53 52 50 49
66 53 44 44 43 44 57 52 55 66 73 74 73 73 74 76 73 75 74 76 75 75 74 72 71 70 71 70 70 70 70 69 66 64 63 61 61 60 58 58 57 56 56 55 53 52 52 51 49
60 56 45 39 41 46 57 52 60 70 73 75 78 79 77 72 71 73 76 76 74 71 70 70 69 69 70 71 71 70 70 66 64 63 62 62 61 59 58 58 58 58 57 56 53 51 52 51 50
62 55 59 51 47 45 49 59 66 69 72 76 77 78 73 68 71 73 70 72 72 69 69 69 68 68 68 68 68 68 67 66 64 62 62 61 59 60 58 59 57 57 56 55 53 51 52 51 50
63 65 53 47 40 38 47 52 54 62 65 65 68 70 72 72 73 72 72 70 71 70 68 68 69 69 67 68 69 68 66 65 64 63 61 60 58 59 58 57 56 56 56 55 53 52 51 50 51
59 56 55 51 47 42 41 48 59 61 63 63 63 65 74 71 75 73 69 71 71 67 69 68 67 66 66 66 66 66 64 64 63 61 59 57 57 57 57 57 57 56 55 54 52 51 52 51 51
63 59 54 45 47 46 45 48 66 63 63 65 65 69 66 70 72 71 71 71 67 66 66 66 65 66 65 65 65 65 65 64 62 61 58 58 57 58 58 60 58 57 57 54 53 52 54 52 51
MSLP
1012.41 1012.59 1012.44 1012.73 1014.19 1014.65 1014.77 1013.98 1013.11 1011.61 1010.97 1009.97 1009.23 1008.20 1008.42 1008.86 1009.73 1011.65 1011.56 1011.95 1012.78 1013.29 1013.71 1014.17 1014.16 1014.33 1014.58 1014.88 1015.19 1015.53 1015.66 1015.80 1015.97 1016.08 1016.22 1016.35 1016.41 1016.55 1016.74 1016.85 1016.92 1016.98 1017.09 1017.18 1017.17 1017.21 1017.24 1017.22 1017.15
1012.22 1012.66 1012.97 1013.27 1014.08 1014.72 1014.36 1012.59 1011.93 1010.34 1009.47 1009.09 1008.47 1008.23 1008.43 1009.20 1009.70 1011.15 1011.94 1012.53 1012.41 1012.91 1013.57 1014.02 1014.12 1014.27 1014.68 1014.98 1015.22 1015.44 1015.57 1015.80 1015.98 1016.16 1016.31 1016.34 1016.54 1016.67 1016.75 1016.85 1016.95 1017.08 1017.12 1017.14 1017.16 1017.17 1017.15 1017.12 1016.99
1012.05 1012.23 1013.29 1013.53 1014.18 1013.97 1012.41 1010.81 1010.04 1009.14 1009.67 1009.05 1008.18 1008.11 1008.71 1009.34 1010.17 1010.86 1011.41 1012.59 1012.78 1013.47 1013.76 1013.97 1014.15 1014.40 1014.67 1015.04 1015.25 1015.35 1015.57 1015.83 1016.01 1016.16 1016.31 1016.49 1016.63 1016.68 1016.78 1016.84 1016.86 1017.06 1017.09 1017.12 1017.14 1017.20 1017.18 1017.11 1017.02
1011.78 1012.64 1013.32 1013.45 1013.58 1011.95 1010.49 1009.10 1009.34 1009.50 1008.59 1008.38 1007.95 1008.87 1009.00 1008.69 1009.80 1010.55 1011.80 1012.77 1013.26 1013.82 1013.95 1014.06 1014.29 1014.57 1014.71 1014.97 1015.19 1015.41 1015.62 1015.83 1015.96 1016.06 1016.27 1016.37 1016.61 1016.69 1016.83 1016.90 1017.00 1017.06 1017.09 1017.07 1017.11 1017.17 1017.18 1017.05 1017.01
1011.74 1013.00 1013.55 1013.34 1012.52 1010.62 1008.15 1007.99 1007.99 1009.18 1008.46 1008.08 1008.00 1009.22 1009.63 1009.78 1009.74 1010.84 1011.99 1012.53 1013.08 1013.88 1014.05 1014.35 1014.47 1014.58 1014.75 1014.91 1015.18 1015.45 1015.64 1015.79 1015.89 1015.96 1016.18 1016.32 1016.51 1016.66 1016.84 1016.90 1017.02 1017.11 1017.09 1017.15 1017.11 1017.10 1017.05 1016.93 1016.94
1012.39 1013.27 1013.95 1013.48 1011.68 1009.79 1007.81 1006.77 1007.34 1008.55 1008.57 1008.34 1008.27 1009.31 1010.28 1010.64 1010.44 1011.47 1011.60 1012.31 1012.83 1013.14 1013.78 1014.23 1014.54 1014.63 1014.75 1014.96 1015.21 1015.39 1015.47 1015.59 1015.79 1015.97 1016.13 1016.31 1016.38 1016.63 1016.74 1016.92 1016.99 1017.03 1016.97 1016.92 1016.93 1016.87 1016.84 1016.80 1016.78
1012.50 1013.69 1013.86 1013.00 1011.57 1009.42 1007.35 1006.20 1007.52 1007.18 1007.30 1007.61 1007.76 1009.04 1009.97 1010.53 1010.61 1011.11 1011.77 1012.20 1012.70 1012.95 1013.36 1013.92 1014.37 1014.61 1014.85 1015.01 1015.13 1015.27 1015.38 1015.53 1015.78 1015.93 1015.99 1016.30 1016.38 1016.45 1016.63 1016.71 1016.79 1016.84 1016.80 1016.72 1016.69 1016.64 1016.68 1016.67 1016.67
1011.94 1013.14 1013.27 1012.41 1011.45 1009.28 1007.34 1006.78 1006.84 1005.96 1007.08 1006.79 1007.35 1008.37 1009.13 1009.05 1009.70 1010.77 1011.77 1012.46 1012.83 1012.90 1013.24 1013.60 1013.95 1014.29 1014.65 1014.87 1014.99 1015.11 1015.27 1015.46 1015.61 1015.73 1015.87 1016.11 1016.20 1016.29 1016.44 1016.48 1016.58 1016.58 1016.54 1016.45 1016.49 1016.46 1016.46 1016.46 1016.59
1011.39 1012.76 1012.74 1012.09 1011.01 1009.17 1007.14 1007.06 1006.87 1006.28 1006.59 1007.20 1007.18 1007.35 1007.66 1008.35 1009.58 1010.42 1011.86 1013.04 1013.05 1013.27 1013.45 1013.61 1013.66 1013.83 1014.27 1014.63 1014.80 1014.96 1015.06 1015.29 1015.44 1015.48 1015.60 1015.88 1016.00 1016.14 1016.26 1016.13 1016.17 1016.19 1016.25 1016.17 1016.21 1016.42 1016.37 1016.54 1016.57
1011.26 1012.27 1011.57 1010.65 1009.78 1009.08 1007.85 1007.15 1006.57 1007.05 1007.04 1007.74 1007.61 1007.51 1007.88 1008.21 1009.38 1010.21 1011.24 1012.29 1012.86 1012.98 1013.34 1013.52 1013.66 1013.59 1013.88 1014.07 1014.46 1014.69 1014.82 1014.97 1015.07 1015.24 1015.33 1015.53 1015.70 1015.79 1015.80 1015.80 1015.79 1015.99 1016.03 1016.01 1016.11 1016.20 1016.34 1016.43 1016.53
1011.08 1011.22 1010.08 1009.41 1008.89 1008.46 1007.74 1006.75 1006.26 1006.36 1006.85 1006.92 1007.25 1007.56 1007.98 1008.33 1009.31 1009.79 1010.46 1010.98 1011.43 1011.85 1012.68 1012.89 1013.19 1013.19 1013.49 1013.42 1013.92 1014.35 1014.56 1014.69 1014.80 1014.88 1014.99 1015.15 1015.33 1015.53 1015.71 1015.58 1015.57 1015.72 1015.75 1016.03 1016.09 1016.38 1016.47 1016.43 1016.50
1010.73 1010.03 1009.69 1008.38 1007.75 1007.97 1007.42 1006.37 1005.89 1005.88 1005.51 1005.86 1006.34 1006.82 1007.42 1007.81 1008.65 1008.97 1009.65 1010.42 1010.89 1011.61 1011.68 1012.14 1012.60 1012.84 1012.91 1012.96 1013.35 1013.64 1014.04 1014.27 1014.43 1014.40 1014.54 1014.86 1015.16 1015.28 1015.28 1015.34 1015.27 1015.56 1015.79 1015.99 1016.22 1016.36 1016.34 1016.29 1016.39
1010.34 1009.58 1009.01 1008.10 1007.56 1007.34 1006.53 1006.05 1005.84 1005.39 1004.93 1005.84 1006.18 1006.72 1006.71 1007.10 1007.72 1008.24 1008.68 1009.26 1010.00 1010.77 1011.17 1011.42 1011.85 1012.20 1012.47 1012.75 1012.93 1013.26 1013.39 1013.62 1013.65 1014.06 1014.16 1014.38 1014.81 1015.12 1014.92 1015.02 1015.24 1015.51 1015.76 1015.87 1016.08 1016.18 1016.22 1016.35 1016.37
1009.90 1009.41 1008.62 1007.68 1007.10 1006.63 1006.40 1005.79 1005.59 1004.79 1005.00 1005.73 1006.21 1006.28 1006.37 1006.61 1006.97 1007.40 1007.95 1008.51 1009.27 1009.73 1010.18 1010.58 1011.04 1011.45 1011.74 1012.15 1012.41 1012.63 1012.86 1013.03 1013.47 1013.63 1013.74 1013.95 1014.24 1014.56 1014.81 1014.93 1015.19 1015.49 1015.63 1015.68 1015.90 1016.07 1016.26 1016.36 1016.16
1009.61 1009.55 1008.27 1007.40 1007.26 1006.77 1006.38 1005.93 1005.41 1004.62 1005.37 1005.70 1005.98 1006.16 1005.85 1005.72 1006.41 1006.43 1006.60 1007.52 1007.88 1008.58 1009.07 1009.67 1010.10 1010.71 1011.18 1011.54 1011.80 1012.02 1012.12 1012.48 1012.93 1012.96 1013.17 1013.41 1013.87 1014.22 1014.46 1014.93 1015.28 1015.33 1015.50 1015.68 1015.88 1015.97 1015.90 1015.93 1015.93
1010.43 1010.08 1009.76 1007.87 1007.38 1006.19 1006.49 1005.98 1004.87 1004.23 1004.86 1005.53 1005.79 1005.82 1005.90 1005.60 1005.72 1005.85 1006.13 1006.55 1007.15 1007.64 1008.22 1008.73 1009.25 1010.03 1010.57 1010.97 1011.24 1011.43 1011.70 1011.94 1012.21 1012.44 1012.70 1012.97 1013.47 1013.81 1014.15 1014.57 1015.08 1015.30 1015.49 1015.48 1015.64 1015.77 1015.88 1016.14 1016.31
1011.53 1010.87 1009.85 1008.20 1006.95 1006.35 1006.00 1005.69 1004.72 1004.03 1004.45 1004.54 1005.14 1005.17 1004.76 1005.55 1005.29 1005.17 1005.31 1005.85 1006.42 1006.99 1007.75 1008.25 1008.66 1009.29 1009.88 1010.38 1010.65 1010.73 1011.25 1011.78 1011.67 1012.08 1012.33 1012.58 1013.05 1013.48 1013.80 1014.28 1014.64 1014.94 1015.23 1015.45 1015.65 1015.87 1016.04 1016.39 1016.55
1011.66 1011.16 1010.06 1009.17 1007.23 1006.40 1006.30 1005.89 1005.22 1004.46 1004.51 1004.35 1004.26 1004.29 1004.71 1004.79 1004.48 1004.41 1004.81 1005.28 1005.83 1006.49 1007.13 1007.67 1008.38 1008.85 1009.50 1010.00 1010.41 1010.74 1011.19 1011.41 1011.58 1011.83 1012.18 1012.38 1012.85 1013.15 1013.56 1014.13 1014.50 1014.82 1015.33 1015.62 1015.82 1015.97 1016.23 1016.52 1016.71
1010.92 1010.65 1009.96 1008.57 1007.37 1006.98 1006.90 1006.43 1005.56 1004.90 1004.49 1004.02 1003.95 1004.18 1004.39 1004.21 1003.40 1004.15 1004.53 1005.01 1005.72 1006.30 1006.94 1007.45 1007.91 1008.53 1009.12 1009.91 1010.51 1010.99 1011.18 1011.36 1011.58 1011.78 1011.86 1012.28 1012.60 1012.93 1013.41 1014.07 1014.50 1014.82 1015.45 1015.77 1015.96 1016.16 1016.42 1016.71 1016.76
1010.27 1009.98 1009.41 1008.21 1007.18 1007.38 1006.87 1006.49 1005.58 1004.91 1004.45 1004.15 1003.77 1003.28 1003.33 1003.68 1003.93 1004.39 1004.69 1005.11 1005.47 1005.82 1006.37 1006.95 1007.43 1008.05 1008.55 1009.05 1009.60 1010.12 1010.61 1011.14 1011.45 1011.75 1012.02 1012.31 1012.56 1012.47 1013.15 1013.73 1014.35 1014.94 1015.48 1015.91 1016.16 1016.47 1016.87 1017.09 1016.96
1009.18 1009.09 1008.94 1008.72 1007.98 1007.66 1007.47 1006.97 1005.85 1004.27 1004.22 1003.70 1003.11 1002.48 1002.27 1002.91 1003.44 1004.14 1004.89 1004.85 1005.26 1005.65 1006.03 1006.68 1007.26 1007.57 1008.03 1008.54 1009.29 1010.05 1010.72 1011.30 1011.76 1012.25 1012.32 1012.48 1012.41 1012.99 1012.93 1013.68 1014.24 1014.99 1015.49 1015.98 1016.37 1016.61 1016.91 1017.37 1017.33
1008.64 1008.25 1008.55 1008.93 1009.32 1009.15 1008.71 1008.66 1007.07 1005.84 1004.80 1003.69 1002.82 1001.87 1001.69 1002.44 1002.85 1003.15 1003.99 1004.92 1004.95 1005.43 1006.24 1006.76 1007.34 1007.83 1008.17 1008.62 1009.27 1009.66 1010.07 1010.65 1010.81 1011.22 1011.75 1012.21 1012.43 1012.98 1013.22 1013.28 1014.12 1014.97 1015.52 1015.99 1016.32 1016.56 1016.76 1017.16 1017.71
1008.20 1008.15 1008.82 1009.34 1009.96 1010.32 1009.97 1009.64 1007.08 1006.12 1005.08 1003.84 1002.25 1001.59 1001.91 1002.20 1002.57 1003.12 1003.77 1004.86 1005.70 1005.99 1006.60 1007.07 1007.42 1007.86 1008.12 1008.39 1008.74 1009.31 1009.95 1010.40 1011.04 1011.42 1012.06 1012.46 1012.71 1012.82 1013.34 1013.40 1014.17 1014.91 1015.42 1015.82 1016.14 1016.52 1016.81 1017.04 1017.46
1007.81 1008.65 1009.65 1010.47 1011.18 1012.03 1010.85 1010.30 1007.84 1007.21 1005.83 1004.14 1003.24 1002.15 1002.35 1002.58 1003.15 1003.83 1004.42 1004.55 1005.32 1005.64 1006.26 1006.54 1006.76 1007.29 1007.71 1008.16 1008.62 1009.19 1009.73 1010.70 1011.33 1011.45 1012.16 1012.55 1012.99 1013.45 1013.46 1013.75 1014.27 1014.91 1015.53 1015.79 1016.04 1016.37 1016.64 1016.96 1017.09
1008.39 1010.12 1011.61 1012.65 1012.95 1012.70 1011.05 1010.68 1009.04 1007.01 1005.40 1004.53 1004.91 1004.22 1003.03 1002.84 1003.55 1003.94 1004.57 1004.93 1005.21 1005.65 1006.09 1006.85 1007.33 1007.81 1008.20 1008.53 1008.91 1009.19 1009.54 1009.95 1010.45 1011.35 1011.74 1012.52 1013.11 1013.20 1013.52 1014.14 1014.58 1014.96 1015.24 1015.62 1015.85 1016.21 1016.57 1016.71 1016.78
1008.87 1010.28 1012.05 1013.12 1013.84 1012.78 1011.36 1010.16 1008.33 1006.93 1005.75 1004.81 1004.47 1004.40 1004.29 1004.44 1003.74 1004.19 1004.32 1004.68 1005.26 1005.82 1006.53 1007.18 1007.84 1008.35 1008.55 1008.74 1008.91 1009.03 1009.51 1010.11 1010.67 1011.47 1011.98 1012.66 1012.95 1013.23 1013.72 1014.23 1014.50 1014.80 1014.99 1015.39 1015.71 1016.07 1016.21 1016.26 1016.31
1008.87 1010.14 1010.94 1012.34 1013.24 1013.31 1011.88 1009.91 1008.18 1006.92 1005.93 1005.75 1005.45 1005.19 1005.31 1004.74 1005.24 1004.56 1004.84 1005.22 1005.46 1006.29 1007.04 1007.48 1007.95 1008.35 1008.69 1009.20 1009.47 1009.53 1009.85 1010.24 1011.00 1011.64 1011.97 1012.51 1012.82 1013.23 1013.59 1014.03 1014.41 1014.81 1015.14 1015.36 1015.64 1015.80 1015.86 1015.79 1015.72
1009.29 1009.97 1011.12 1012.69 1013.67 1013.79 1012.41 1010.84 1009.66 1008.03 1007.24 1006.85 1006.61 1006.40 1006.10 1005.29 1005.23 1005.70 1005.45 1005.61 1006.06 1006.42 1006.97 1007.50 1007.79 1008.13 1008.72 1008.99 1009.30 1009.83 1010.21 1010.56 1011.05 1011.60 1012.35 1012.75 1013.13 1013.36 1013.79 1014.24 1014.63 1014.88 1015.05 1015.09 1015.30 1015.42 1015.35 1015.45 1015.18
1010.17 1010.85 1011.77 1012.91 1013.44 1013.72 1012.97 1011.51 1009.14 1008.20 1007.35 1006.93 1006.76 1006.55 1005.76 1005.47 1005.16 1005.77 1005.81 1006.16 1006.38 1006.63 1006.92 1007.33 1007.94 1008.46 1008.73 1008.99 1009.60 1010.09 1010.68 1011.23 1011.59 1012.09 1012.66 1013.01 1013.26 1013.68 1014.10 1014.41 1014.60 1014.76 1014.84 1014.90 1015.12 1015.13 1015.09 1015.09 1014.80
1010.87 1012.09 1013.03 1014.08 1013.82 1013.39 1012.42 1010.57 1008.52 1008.07 1007.47 1007.21 1006.59 1006.25 1006.32 1006.21 1005.63 1005.56 1006.16 1006.28 1006.45 1006.89 1007.41 1007.75 1008.49 1008.50 1008.59 1009.12 1009.68 1010.35 1011.01 1011.38 1011.87 1012.31 1012.58 1012.97 1013.40 1013.75 1013.96 1014.17 1014.43 1014.56 1014.52 1014.56 1014.77 1014.78 1014.48 1014.49 1014.55
Wind_Speed
4 4 1 4 4 6 3 6 3 11 9 5 10 5 8 3 2 4 1 13 20 17 14 15 19 19 18 17 16 15 14 13 13 13 13 12 12 11 11 10 9 9 9 7 6 5 4 3 5
2 5 4 2 4 3 5 5 10 17 6 8 1 4 6 3 5 10 7 14 20 17 13 13 19 19 18 17 16 15 14 14 13 13 12 12 11 10 10 9 9 8 8 7 5 4 3 1 3
2 2 4 4 4 3 5 10 16 15 14 2 2 3 4 1 7 11 12 17 16 13 10 13 18 18 17 17 16 15 14 14 13 12 12 11 9 9 8 8 8 8 7 6 5 3 1 1 2
3 4 4 4 4 10 10 11 10 4 10 12 8 3 4 4 13 10 19 17 13 10 8 15 17 17 17 17 16 14 14 13 13 12 11 11 10 8 7 7 7 7 6 5 4 3 3 2 3
4 4 3 4 5 6 11 2 16 10 2 10 5 4 4 5 19 22 19 16 16 10 8 11 16 16 16 17 16 14 13 12 12 12 11 11 10 9 8 8 8 7 7 6 6 6 6 5 6
5 4 5 5 7 8 10 7 17 5 11 4 7 6 3 6 19 17 19 17 16 17 12 11 15 15 15 15 14 14 13 13 12 11 10 10 10 9 9 9 9 8 8 8 8 8 7 7 7
6 4 5 4 7 10 8 2 8 15 8 5 10 6 3 9 16 17 16 15 16 15 15 11 9 12 14 14 14 14 13 12 11 11 10 9 10 10 10 9 10 10 9 9 10 8 8 8 9
6 5 5 4 3 13 15 10 8 13 4 10 8 8 8 10 21 17 13 12 12 14 13 12 12 10 8 8 15 14 13 12 12 11 10 10 11 11 10 10 10 12 12 11 11 9 9 10 9
4 4 6 5 3 9 20 10 2 2 9 3 4 5 10 11 15 18 13 6 8 9 9 10 11 11 10 8 10 13 16 14 13 12 12 9 5 6 9 10 14 15 14 13 11 10 11 7 8
5 4 8 8 6 9 9 5 3 5 9 2 3 6 11 12 18 21 17 13 10 11 11 9 10 11 11 9 9 8 8 7 7 6 7 5 6 5 9 11 15 14 14 13 11 11 9 6 3
2 6 11 12 12 8 7 11 2 7 3 10 17 14 11 7 14 20 19 19 19 16 11 14 12 12 12 10 7 5 5 4 5 8 7 6 5 4 4 3 5 5 11 2 4 2 2 3 2
2 8 9 18 17 4 8 4 8 6 8 15 19 17 13 11 11 19 21 19 16 15 17 16 15 13 13 7 8 8 7 6 6 8 9 5 4 4 5 4 5 4 2 4 3 2 2 0 3
5 7 7 12 12 9 5 6 6 7 3 7 16 14 15 12 14 15 19 20 17 17 16 17 16 14 12 10 8 7 9 8 9 7 8 6 5 5 4 4 3 4 3 4 3 3 1 2 4
3 6 10 9 8 5 3 7 4 11 7 7 16 14 14 16 18 14 9 16 18 18 19 18 18 15 13 12 11 9 7 8 6 6 7 9 5 5 4 3 4 3 4 4 4 3 3 1 2
6 8 11 10 6 9 4 11 9 11 9 10 12 13 15 17 15 21 19 16 21 20 20 19 18 15 14 15 12 9 8 7 7 7 8 10 7 6 6 5 4 4 4 5 3 2 1 4 3
7 4 6 10 4 14 9 16 16 13 8 14 14 14 12 17 17 15 15 16 17 17 21 19 17 15 14 12 11 9 5 7 7 6 6 9 7 7 5 5 5 5 4 3 2 2 2 2 2
7 4 7 12 7 7 5 11 15 12 5 7 18 17 20 17 16 12 15 16 18 17 17 18 18 17 14 10 7 7 7 5 5 4 5 7 7 7 6 4 4 5 3 2 1 1 2 0 2
6 4 5 8 9 8 5 9 9 9 4 8 4 16 17 19 23 16 14 16 17 15 16 18 14 14 13 7 5 3 4 4 3 4 5 7 6 7 6 5 5 4 3 1 0 1 1 1 1
5 5 7 8 6 6 2 5 9 9 4 8 6 8 14 19 24 14 12 12 13 12 12 13 12 9 9 4 4 3 4 2 2 3 7 7 8 7 7 5 5 4 2 2 2 1 1 2 2
9 8 7 7 9 5 8 7 7 6 6 6 10 11 9 14 10 9 10 9 15 16 16 14 15 12 10 7 4 4 4 2 3 3 5 7 7 6 6 6 5 4 3 4 4 3 1 1 2
4 2 5 5 7 5 6 9 9 20 5 9 11 13 9 13 16 12 13 17 12 15 16 15 13 13 11 8 5 4 5 4 3 2 3 4 6 3 7 5 5 5 4 4 2 2 3 0 2
2 6 4 7 7 5 6 8 8 9 12 14 17 14 8 3 7 16 18 11 16 13 7 7 6 7 6 7 8 6 5 5 4 5 3 4 5 3 3 7 6 6 4 4 3 2 2 3 1
8 4 2 1 4 5 7 4 10 8 9 12 10 3 5 7 10 14 15 7 7 8 8 8 8 8 8 8 8 6 4 2 3 4 6 4 3 6 5 7 7 6 4 4 3 2 3 2 3
1 6 8 6 3 5 5 3 9 7 7 8 12 10 10 9 10 10 7 13 9 9 10 10 10 8 8 7 7 8 8 9 8 3 5 5 2 3 5 7 6 6 5 3 3 3 2 3 2
9 8 5 7 6 6 5 2 9 14 11 14 13 10 3 7 9 14 12 12 12 11 9 6 7 5 6 7 5 7 7 9 11 8 4 6 4 2 5 5 5 3 4 4 4 3 3 3 3
4 8 7 4 3 7 6 2 8 6 7 8 8 16 13 10 7 9 13 11 9 8 7 8 8 7 6 5 5 5 5 3 5 4 3 3 3 3 6 5 5 5 4 3 3 2 4 5 5
4 2 7 5 0 4 3 7 8 11 14 15 12 12 10 9 7 8 3 6 8 8 8 10 8 7 7 7 5 5 4 5 6 7 5 4 3 4 6 6 5 3 4 4 4 4 6 5 5
3 3 3 4 0 2 5 5 4 7 8 6 8 7 6 4 6 4 8 6 5 8 8 9 11 11 8 8 7 5 6 6 7 7 7 5 5 5 6 4 4 4 4 5 5 5 6 6 5
9 7 4 3 6 6 2 7 7 4 1 2 3 3 6 3 6 8 3 5 7 7 11 10 7 8 7 7 7 9 8 7 6 6 6 6 5 6 5 5 4 5 6 6 5 6 7 7 7
5 4 5 5 10 3 5 8 5 3 2 5 2 6 4 8 9 8 7 9 7 7 7 7 5 7 7 5 9 10 8 7 7 6 6 6 6 4 4 2 3 4 5 5 5 7 6 6 6
Wind_Direction
172 154 90 51 73 68 288 255 283 255 165 216 289 128 107 75 123 191 43 139 137 145 153 157 147 145 146 145 139 136 132 128 124 119 118 116 114 114 115 112 113 112 112 112 109 96 84 57 31
210 133 29 51 85 67 258 240 219 234 161 207 48 42 38 45 72 119 102 150 145 144 150 156 151 147 146 143 140 140 136 134 131 131 130 124 123 125 125 123 121 126 136 141 134 139 138 82 40
224 171 109 146 98 180 255 223 221 241 255 304 9 54 85 250 102 138 133 143 135 138 147 159 151 148 147 146 145 145 142 139 138 136 133 134 134 133 134 136 139 157 160 160 164 174 196 299 352
157 23 7 92 259 248 238 224 214 15 289 193 144 100 68 264 153 134 133 139 126 136 147 152 150 150 148 150 151 148 146 145 145 143 146 146 146 148 149 150 163 172 176 182 195 218 250 282 284
48 60 24 333 244 265 300 134 191 187 357 118 140 95 55 28 116 127 139 141 141 140 140 147 152 152 154 156 154 151 147 149 153 157 159 159 160 162 169 171 182 190 192 206 217 230 240 254 266
13 92 20 317 305 293 264 130 174 138 142 173 85 117 103 109 124 145 154 152 156 145 144 153 157 158 156 158 156 153 157 161 166 167 167 173 170 178 184 190 196 201 204 211 225 230 243 254 262
128 93 233 253 286 303 299 19 141 159 164 136 141 123 177 153 160 159 156 153 155 153 150 153 159 163 162 162 162 163 167 171 173 176 174 184 188 191 198 201 207 212 214 221 230 233 243 253 264
116 98 297 277 350 288 305 345 127 128 198 145 171 159 193 178 162 151 151 149 151 151 157 160 161 164 165 171 170 175 176 177 183 184 186 197 201 202 209 211 219 221 224 228 233 235 241 251 271
101 75 270 252 360 274 309 336 65 17 113 288 217 126 145 168 129 140 128 131 144 154 163 174 171 163 166 171 185 183 186 189 193 194 197 205 205 208 222 217 222 227 229 232 234 242 250 272 291
109 127 247 202 216 249 277 289 30 170 129 28 83 84 149 152 136 143 152 161 174 167 180 181 181 172 170 179 186 188 194 194 194 199 199 205 208 201 220 226 232 234 234 236 238 242 263 292 303
220 206 253 267 251 233 260 300 27 150 204 188 166 167 167 151 144 154 167 172 180 184 178 186 185 183 179 188 182 187 196 194 204 206 203 213 209 215 227 222 232 223 241 233 256 341 302 281 307
244 250 245 274 273 289 251 249 307 194 238 166 173 173 167 154 173 170 172 183 177 179 185 185 188 189 192 190 184 187 191 196 206 210 211 204 199 217 224 218 210 189 200 216 224 223 192 85 304
194 271 293 270 278 239 279 287 255 276 181 110 170 170 169 166 179 182 174 182 177 182 186 190 187 191 192 197 183 188 200 201 208 207 208 202 193 208 200 208 181 183 216 190 177 164 152 288 276
271 276 271 276 271 267 284 285 52 291 153 154 166 180 182 174 182 186 185 179 184 185 187 189 191 191 189 195 189 193 196 207 204 200 206 205 207 190 193 186 176 158 176 149 155 173 192 257 359
300 343 320 316 318 289 76 310 282 259 166 182 185 206 189 188 187 194 193 182 179 191 185 188 189 188 189 196 193 195 197 196 203 199 195 196 194 190 164 153 157 168 159 151 168 185 103 28 28
353 37 12 289 321 272 118 269 268 275 165 191 206 206 203 205 204 199 198 192 186 177 187 185 189 184 187 190 192 194 188 203 204 196 194 183 170 163 150 143 154 161 163 159 109 62 43 55 16
352 272 295 309 296 285 143 240 261 264 265 248 202 201 210 214 210 208 194 187 185 180 180 183 188 183 183 183 179 161 170 194 180 171 180 176 162 164 150 142 147 142 136 92 111 113 125 50 328
243 285 293 275 299 12 12 276 302 297 261 258 222 211 208 204 209 203 189 188 183 177 176 178 183 180 177 170 160 138 164 190 154 172 173 158 152 153 133 132 142 141 117 90 52 187 74 178 272
238 255 266 266 284 17 283 271 284 276 257 303 257 238 202 205 211 197 186 172 175 172 167 175 170 178 164 152 148 148 193 172 131 159 159 152 159 150 140 144 139 125 129 128 40 57 58 341 13
252 256 283 291 322 4 326 299 273 270 275 272 278 279 210 216 204 194 180 172 179 174 180 178 185 176 183 173 158 155 160 136 124 147 147 145 148 158 145 138 135 135 105 68 66 57 52 355 25
308 271 295 293 323 355 357 328 335 310 323 304 286 258 241 183 198 179 178 192 177 185 183 185 185 183 180 173 131 83 79 70 81 133 130 162 151 170 136 135 124 116 116 116 93 121 112 100 313
268 269 329 332 27 310 59 296 300 286 305 297 289 260 254 171 179 180 185 187 191 192 174 161 159 158 163 159 171 174 175 169 184 165 163 149 167 146 142 127 122 127 118 111 129 136 130 121 259
230 259 329 310 355 18 357 40 272 303 316 303 292 160 146 177 172 183 186 141 118 121 137 143 147 157 161 171 175 179 171 129 144 121 153 169 150 164 170 123 125 128 119 130 135 137 132 153 157
43 36 21 39 49 27 251 140 290 329 280 308 310 92 123 126 120 103 131 140 148 152 153 166 165 167 156 149 162 163 164 142 150 185 173 155 159 140 110 121 130 127 132 141 141 140 164 176 196
62 56 352 356 9 222 306 31 256 301 27 58 14 338 302 122 134 132 146 147 155 167 164 131 129 120 139 146 153 168 180 167 162 180 161 158 159 177 138 130 138 136 137 155 142 170 227 237 225
183 144 150 240 254 273 322 296 283 289 305 25 22 29 25 335 140 164 170 167 160 158 131 118 126 123 123 125 142 130 161 147 133 139 129 136 185 171 150 142 139 143 152 182 183 206 235 235 248
270 218 183 137 103 35 272 311 327 355 11 7 1 40 1 30 305 193 151 151 163 131 129 137 135 133 140 139 127 106 122 131 132 123 131 174 142 144 148 142 133 170 203 206 205 224 241 236 248
66 250 10 10 236 291 301 300 241 339 334 17 355 6 7 15 124 238 200 147 120 142 152 156 163 163 146 140 130 105 88 91 99 98 93 90 116 111 121 126 173 214 232 234 227 241 249 243 259
353 339 354 124 141 173 238 274 226 241 209 21 15 341 23 335 160 231 207 165 169 158 168 167 149 134 141 127 109 108 105 101 89 96 117 128 113 124 144 182 207 233 248 258 254 254 260 250 257
176 71 78 72 303 256 156 265 253 255 149 279 286 323 342 291 297 184 201 193 173 160 147 155 117 132 138 127 115 115 117 120 116 126 131 137 136 146 169 202 264 266 264 267 256 262 258 259 282